2019-025B

Last updated on May 12, 2019, 12:02 a.m. UTC

1 44223U 19025B   19131.19002253  .45414413  13098-4  31219-3 0  9999
2 44223  51.6217 182.5319 0024082   4.1953  36.1954 16.51348710  1113

Satellite is not in orbit.